Walhalla, ND

8:02 AM CDT on April 26, 2017 (GMT -0500)
Walhalla

Weather History for K96D - July, 2013

Change the Weather History Date:

Friday, July 26, 2013

  Actual Average (KGAF) Record (KGAF)
Temperature  
Mean Temperature 57 °F -  
Max Temperature 66 °F 84 °F 100 °F (1978)
Min Temperature 48 °F 56 °F 40 °F (1985)
Degree Days  
Heating Degree Days 8    
Growing Degree Days 7 (Base 50)    
Moisture  
Dew Point 51 °F    
Average Humidity 79    
Maximum Humidity 100    
Minimum Humidity 49    
Precipitation  
Precipitation 0.00 in - - ()
Sea Level Pressure  
Sea Level Pressure 30.21 in    
Wind  
Wind Speed 13 mph (North)    
Max Wind Speed 20 mph    
Max Gust Speed 28 mph    
Visibility 10 miles    
Events      
Averages and records for this station are not official NWS values.
T = Trace of Precipitation, MM = Missing Value Source: NWS Daily Summary

Daily Weather History Graph

Daily Weather History Graph

Search for Another Location

Airport or City:

Trip Planner

Search our weather history database for the weather conditions in past years. The results will help you decide how hot, cold, wet, or windy it might be!

Date:

Astronomy

Jul. 26, 2013 Rise Set
Actual Time 5:57 AM CDT 9:18 PM CDT
Civil Twilight 5:18 AM CDT 9:56 PM CDT
Nautical Twilight 4:27 AM CDT 10:47 PM CDT
Astronomical Twilight 3:20 AM CDT 11:53 PM CDT
Moon 11:00 PM CDT 11:04 AM CDT
Length of Visible Light 16h 37m
Length of Day
15h 21m
Waning Gibbous, 80% of the Moon is Illuminated
Jul 26
Waning Gibbous
Jul 29
Last Quarter
Aug 6
New
Aug 14
First Quarter
Aug 20
Full

Hourly Weather History & Observations

Time (CDT) Temp. Dew Point Humidity Pressure Visibility Wind Dir Wind Speed Gust Speed Precip Events Conditions
12:15 AM 57.2 °F 55.4 °F 94% 30.10 in 10.0 mi North 19.6 mph 27.6 mph N/A   Overcast
12:35 AM 57.2 °F 55.4 °F 94% 30.11 in 10.0 mi North 16.1 mph 20.7 mph N/A   Overcast
12:55 AM 57.2 °F 55.4 °F 94% 30.11 in 10.0 mi North 15.0 mph 20.7 mph N/A   Overcast
1:15 AM 57.2 °F 55.4 °F 94% 30.11 in 10.0 mi North 12.7 mph 23.0 mph N/A   Overcast
1:35 AM 57.2 °F 55.4 °F 94% 30.12 in 10.0 mi North 13.8 mph 18.4 mph N/A   Overcast
1:55 AM 55.4 °F 55.4 °F 100% 30.12 in 10.0 mi North 11.5 mph - N/A   Overcast
2:15 AM 55.4 °F 55.4 °F 100% 30.12 in 10.0 mi North 8.1 mph - N/A   Overcast
2:35 AM 55.4 °F 55.4 °F 100% 30.12 in 10.0 mi NNW 9.2 mph - N/A   Mostly Cloudy
2:55 AM 55.4 °F 55.4 °F 100% 30.13 in 10.0 mi NNW 6.9 mph - N/A   Mostly Cloudy
3:15 AM 53.6 °F 53.6 °F 100% 30.13 in 10.0 mi NNW 8.1 mph - N/A   Overcast
3:35 AM 53.6 °F 53.6 °F 100% 30.13 in 10.0 mi NNW 11.5 mph - N/A   Scattered Clouds
3:55 AM 53.6 °F 53.6 °F 100% 30.14 in 10.0 mi NNW 11.5 mph - N/A   Clear
4:15 AM 53.6 °F 53.6 °F 100% 30.15 in 10.0 mi NNW 10.4 mph - N/A   Clear
4:35 AM 51.8 °F 51.8 °F 100% 30.15 in 10.0 mi NNW 10.4 mph - N/A   Clear
4:55 AM 51.8 °F 51.8 °F 100% 30.16 in 10.0 mi NNW 9.2 mph - N/A   Clear
5:15 AM 51.8 °F 51.8 °F 100% 30.17 in 10.0 mi NNW 9.2 mph - N/A   Clear
5:35 AM 50.0 °F 50.0 °F 100% 30.17 in 10.0 mi NNW 9.2 mph - N/A   Clear
5:55 AM 50.0 °F 50.0 °F 100% 30.18 in 10.0 mi NNW 6.9 mph - N/A   Clear
6:15 AM 48.2 °F 48.2 °F 100% 30.18 in 10.0 mi NW 5.8 mph - N/A   Clear
6:35 AM 50.0 °F 50.0 °F 100% 30.19 in 10.0 mi NNW 8.1 mph - N/A   Clear
6:55 AM 50.0 °F 50.0 °F 100% 30.20 in 10.0 mi NNW 8.1 mph - N/A   Clear
7:15 AM 50.0 °F 50.0 °F 100% 30.21 in 10.0 mi North 9.2 mph - N/A   Clear
7:35 AM 51.8 °F 51.8 °F 100% 30.21 in 10.0 mi NNW 10.4 mph - N/A   Clear
7:55 AM 53.6 °F 53.6 °F 100% 30.22 in 10.0 mi NNW 10.4 mph - N/A   Clear
8:15 AM 55.4 °F 53.6 °F 94% 30.22 in 10.0 mi North 12.7 mph - N/A   Clear
8:35 AM 57.2 °F 53.6 °F 88% 30.22 in 10.0 mi North 10.4 mph - N/A   Clear
8:55 AM 57.2 °F 53.6 °F 88% 30.23 in 10.0 mi North 11.5 mph - N/A   Clear
9:15 AM 57.2 °F 53.6 °F 88% 30.23 in 10.0 mi North 12.7 mph - N/A   Clear
9:35 AM 59.0 °F 53.6 °F 82% 30.24 in 10.0 mi North 13.8 mph - N/A   Scattered Clouds
9:55 AM 59.0 °F 53.6 °F 82% 30.24 in 10.0 mi NNW 12.7 mph - N/A   Mostly Cloudy
10:15 AM 59.0 °F 53.6 °F 82% 30.25 in 10.0 mi NNW 16.1 mph - N/A   Mostly Cloudy
10:35 AM 62.6 °F 53.6 °F 72% 30.25 in 10.0 mi North 15.0 mph 21.9 mph N/A   Overcast
10:55 AM 62.6 °F 53.6 °F 72% 30.26 in 10.0 mi North 15.0 mph - N/A   Mostly Cloudy
11:15 AM 60.8 °F 53.6 °F 77% 30.26 in 10.0 mi North 13.8 mph - N/A   Mostly Cloudy
11:35 AM 60.8 °F 51.8 °F 72% 30.25 in 10.0 mi North 17.3 mph 21.9 mph N/A   Mostly Cloudy
11:55 AM 59.0 °F 50.0 °F 72% 30.25 in 10.0 mi NNW 15.0 mph 24.2 mph N/A   Mostly Cloudy
12:15 PM 62.6 °F 50.0 °F 63% 30.24 in 10.0 mi North 17.3 mph 23.0 mph N/A   Mostly Cloudy
12:35 PM 62.6 °F 48.2 °F 59% 30.24 in 10.0 mi North 18.4 mph 24.2 mph N/A   Mostly Cloudy
12:55 PM 62.6 °F 48.2 °F 59% 30.23 in 10.0 mi North 16.1 mph 23.0 mph N/A   Scattered Clouds
1:15 PM 62.6 °F 48.2 °F 59% 30.24 in 10.0 mi North 11.5 mph 23.0 mph N/A   Scattered Clouds
1:35 PM 62.6 °F 48.2 °F 59% 30.23 in 10.0 mi North 18.4 mph 21.9 mph N/A   Mostly Cloudy
1:55 PM 64.4 °F 48.2 °F 56% 30.23 in 10.0 mi North 11.5 mph - N/A   Scattered Clouds
2:15 PM 62.6 °F 48.2 °F 59% 30.24 in 10.0 mi North 13.8 mph 19.6 mph N/A   Mostly Cloudy
2:35 PM 64.4 °F 48.2 °F 56% 30.24 in 10.0 mi North 12.7 mph - N/A   Mostly Cloudy
2:55 PM 64.4 °F 48.2 °F 56% 30.24 in 10.0 mi North 19.6 mph 23.0 mph N/A   Mostly Cloudy
3:15 PM 64.4 °F 48.2 °F 56% 30.24 in 10.0 mi North 17.3 mph 23.0 mph N/A   Mostly Cloudy
3:35 PM 62.6 °F 46.4 °F 55% 30.24 in 10.0 mi North 18.4 mph - N/A   Overcast
3:55 PM 62.6 °F 46.4 °F 55% 30.23 in 10.0 mi NNW 13.8 mph 20.7 mph N/A   Mostly Cloudy
4:15 PM 66.2 °F 46.4 °F 49% 30.23 in 10.0 mi North 16.1 mph 21.9 mph N/A   Scattered Clouds
4:35 PM 62.6 °F 48.2 °F 59% 30.23 in 10.0 mi North 15.0 mph 20.7 mph N/A   Mostly Cloudy
4:55 PM 62.6 °F 44.6 °F 52% 30.24 in 10.0 mi North 16.1 mph 25.3 mph N/A   Mostly Cloudy
5:15 PM 62.6 °F 46.4 °F 55% 30.24 in 10.0 mi North 11.5 mph - N/A   Mostly Cloudy
5:35 PM 62.6 °F 46.4 °F 55% 30.24 in 10.0 mi North 17.3 mph 20.7 mph N/A   Mostly Cloudy
5:55 PM 62.6 °F 44.6 °F 52% 30.24 in 10.0 mi NNE 13.8 mph 24.2 mph N/A   Scattered Clouds
6:15 PM 64.4 °F 46.4 °F 52% 30.24 in 10.0 mi NNE 11.5 mph 17.3 mph N/A   Mostly Cloudy
6:35 PM 62.6 °F 46.4 °F 55% 30.24 in 10.0 mi North 15.0 mph 20.7 mph N/A   Scattered Clouds
6:55 PM 62.6 °F 46.4 °F 55% 30.24 in 10.0 mi North 12.7 mph - N/A   Partly Cloudy
7:15 PM 62.6 °F 46.4 °F 55% 30.24 in 10.0 mi North 13.8 mph - N/A   Partly Cloudy
7:35 PM 62.6 °F 46.4 °F 55% 30.24 in 10.0 mi North 12.7 mph - N/A   Mostly Cloudy
7:55 PM 60.8 °F 46.4 °F 59% 30.24 in 10.0 mi NNE 9.2 mph - N/A   Overcast
8:15 PM 60.8 °F 48.2 °F 63% 30.24 in 10.0 mi NNE 10.4 mph - N/A   Overcast
8:35 PM 59.0 °F 48.2 °F 67% 30.24 in 10.0 mi North 9.2 mph - N/A   Overcast
8:55 PM 57.2 °F 48.2 °F 72% 30.24 in 10.0 mi NNE 6.9 mph - N/A   Partly Cloudy
9:15 PM 57.2 °F 50.0 °F 77% 30.25 in 10.0 mi North 5.8 mph - N/A   Scattered Clouds
9:35 PM 55.4 °F 53.6 °F 94% 30.24 in 10.0 mi NNW 4.6 mph - N/A   Scattered Clouds
9:55 PM 55.4 °F 53.6 °F 94% 30.24 in 10.0 mi NW 5.8 mph - N/A   Mostly Cloudy
10:15 PM 55.4 °F 53.6 °F 94% 30.24 in 10.0 mi WNW 5.8 mph - N/A   Mostly Cloudy
10:35 PM 55.4 °F 51.8 °F 88% 30.24 in 10.0 mi NW 5.8 mph - N/A   Overcast
10:55 PM 53.6 °F 51.8 °F 94% 30.24 in 10.0 mi NW 4.6 mph - N/A   Overcast
11:15 PM 53.6 °F 51.8 °F 94% 30.23 in 10.0 mi NW 3.5 mph - N/A   Overcast
11:35 PM 53.6 °F 51.8 °F 94% 30.23 in 10.0 mi NW 3.5 mph - N/A   Mostly Cloudy
11:55 PM 51.8 °F 50.0 °F 94% 30.23 in 10.0 mi WNW 5.8 mph - N/A   Partly Cloudy